Flag for India Weather past 2 weeks in Jaipur, Rajasthan, India

Now
79 °F

Haze.


Feels Like: 80 °F
Forecast: 83 / 103 °F
Wind: 1 mph from North

Location: Jaipur / Sanganer

Current Time: Apr 19, 2015 at 7:13:45 AM

Latest Report: Apr 19, 2015 at 6:00 AM


Visibility: 2 mi

Pressure: 29.71 "Hg

Humidity: 48%

Dew point: 57 °F

Location of JaipurLocation

Historic Weather in Jaipur — Graph

°F

Jaipur temperature yesterday

Maximum temperature yesterday: 104 °F (at 3:00 PM)
Minimum temperature yesterday: 79 °F (at 4:00 AM)
Average temperature yesterday: 93 °F

Past Weeks' High & Low Weather Summary

 TemperatureHumidityPressure
High104 °F (Apr 18, 3:00 PM)100% (Apr 5, 8:00 AM)30.07 "Hg (Apr 5, 8:00 AM)
Low66 °F (Apr 5, 8:00 AM)10% (Apr 10, 4:30 PM)29.62 "Hg (Apr 18, 3:30 PM)
Average81 °F45%29.88 "Hg
* Reported Apr 4 5:00 AM — Apr 19 5:00 AM, Jaipur, Weather by CustomWeather, © 2015

Note: Actual official high and low records may vary slightly from our data, if they occured in-between our weather recording intervals... More about our weather records

Advertising

Jaipur weather history for previous 24 hours

 ConditionsComfort  
Time TempWeatherWind HumidityBarometerVisibility
5:00 AM
Sun, Apr 19
81 °FHaze.2 mph42%29.68 "Hg1 mi
4:00 AM79 °FHaze.3 mph48%29.68 "Hg1 mi
3:00 AM82 °FHaze.3 mph40%29.68 "Hg1 mi
2:00 AM84 °FHaze.3 mph35%29.71 "Hg1 mi
1:00 AM84 °FHaze.3 mph35%29.71 "Hg1 mi
12:00 AM86 °FHaze.3 mph33%29.71 "Hg1 mi
11:00 PM
Sat, Apr 18
90 °FHaze.2 mph24%29.71 "Hg1 mi
10:00 PM93 °FHaze.3 mph21%29.71 "Hg1 mi
8:30 PM95 °FHaze.2 mph20%29.65 "Hg2 mi
8:00 PM97 °FHaze.3 mph18%29.65 "Hg2 mi
7:00 PM99 °FHaze.3 mph16%29.62 "Hg2 mi
6:30 PM100 °FHaze.5 mph14%29.62 "Hg2 mi
6:00 PM102 °FHaze.5 mph14%29.62 "Hg2 mi
5:30 PM102 °FHaze.6 mph15%29.62 "Hg2 mi
5:00 PM102 °FHaze.6 mph14%29.62 "Hg2 mi
4:30 PM104 °FHaze.9 mph13%29.62 "Hg2 mi
4:00 PM104 °FHaze.12 mph13%29.62 "Hg2 mi
3:30 PM104 °FHaze.9 mph13%29.62 "Hg2 mi
3:00 PM104 °FHaze.9 mph14%29.65 "Hg2 mi
2:30 PM102 °FHaze.10 mph16%29.65 "Hg2 mi
2:00 PM102 °FHaze.13 mph15%29.68 "Hg2 mi
1:30 PM100 °FHaze.8 mph18%29.68 "Hg2 mi
1:00 PM100 °FHaze.9 mph18%29.71 "Hg2 mi
12:00 PM99 °FHaze.8 mph22%29.74 "Hg2 mi
11:00 AM95 °FHaze.7 mph26%29.74 "Hg2 mi
10:00 AM91 °FHaze.6 mph30%29.77 "Hg2 mi
9:00 AM90 °FHaze.5 mph33%29.77 "Hg2 mi
8:00 AM86 °FHaze.No wind40%29.74 "Hg1 mi
7:30 AM82 °FHaze.No wind45%29.74 "Hg2 mi
7:00 AM79 °FHaze.No wind51%29.71 "Hg2 mi
Weather by CustomWeather, © 2015

See weather overviewHow to use our weather pages